Time,TemperatureF,DewpointF,PressureIn,WindDirection,WindDirectionDegrees,WindSpeedMPH,WindSpeedGustMPH,Humidity,HourlyPrecipIn,Conditions,Clouds,dailyrainin,SoftwareType,DateUTC
2013-03-27 00:02:00,28.0,24.0,-100.00,SW,225,1.0,4.0,86,-99.99,,,-99.99,,2013-03-27 05:02:00,
2013-03-27 00:12:00,28.0,24.0,-100.00,SW,230,1.0,4.0,86,-99.99,,,-99.99,,2013-03-27 05:12:00,
2013-03-27 00:23:00,28.0,24.0,-100.00,SW,230,1.0,4.0,86,-99.99,,,-99.99,,2013-03-27 05:23:00,
2013-03-27 00:33:00,27.0,24.0,-100.00,WNW,295,1.0,1.0,89,-99.99,,,-99.99,,2013-03-27 05:33:00,
2013-03-27 00:42:00,27.0,24.0,-100.00,SW,230,1.0,4.0,90,-99.99,,,-99.99,,2013-03-27 05:42:00,
2013-03-27 00:52:00,27.0,24.0,-100.00,SW,230,1.0,4.0,90,-99.99,,,-99.99,,2013-03-27 05:52:00,
2013-03-27 01:02:00,26.0,24.0,-100.00,West,275,1.0,2.0,91,-99.99,,,-99.99,,2013-03-27 06:02:00,
2013-03-27 01:12:00,26.0,24.0,-100.00,South,190,1.0,3.0,91,-99.99,,,-99.99,,2013-03-27 06:12:00,
2013-03-27 01:22:00,26.0,24.0,-100.00,South,190,1.0,3.0,91,-99.99,,,-99.99,,2013-03-27 06:22:00,
2013-03-27 01:32:00,26.0,23.0,-100.00,SSW,205,2.0,5.0,90,-99.99,,,-99.99,,2013-03-27 06:32:00,
2013-03-27 01:42:00,26.0,23.0,-100.00,West,280,1.0,3.0,90,-99.99,,,-99.99,,2013-03-27 06:42:00,
2013-03-27 01:52:00,26.0,23.0,-100.00,West,280,1.0,3.0,90,-99.99,,,-99.99,,2013-03-27 06:52:00,
2013-03-27 02:00:00,24.0,22.0,-100.00,West,270,1.0,3.0,92,-99.99,,,-99.99,,2013-03-27 07:00:00,
2013-03-27 02:02:00,25.0,23.0,-100.00,West,265,1.0,2.0,92,-99.99,,,-99.99,,2013-03-27 07:02:00,
2013-03-27 02:12:00,25.0,23.0,-100.00,West,275,0.0,3.0,92,-99.99,,,-99.99,,2013-03-27 07:12:00,
2013-03-27 02:22:00,25.0,23.0,-100.00,West,275,0.0,3.0,92,-99.99,,,-99.99,,2013-03-27 07:22:00,
2013-03-27 02:30:00,24.0,22.0,-100.00,WNW,290,1.0,2.0,92,-99.99,,,-99.99,,2013-03-27 07:30:00,
2013-03-27 02:32:00,24.0,22.0,-100.00,WNW,285,0.0,2.0,92,-99.99,,,-99.99,,2013-03-27 07:32:00,
2013-03-27 02:42:00,24.0,22.0,-100.00,West,270,1.0,3.0,92,-99.99,,,-99.99,,2013-03-27 07:42:00,
2013-03-27 02:53:00,24.0,22.0,-100.00,West,270,1.0,3.0,92,-99.99,,,-99.99,,2013-03-27 07:53:00,
2013-03-27 03:22:00,24.0,22.0,-100.00,WNW,290,1.0,2.0,92,-99.99,,,-99.99,,2013-03-27 08:22:00,
2013-03-27 03:43:00,24.0,22.0,-100.00,SSW,210,0.0,2.0,92,-99.99,,,-99.99,,2013-03-27 08:43:00,
2013-03-27 03:52:00,24.0,22.0,-100.00,SSW,210,0.0,2.0,92,-99.99,,,-99.99,,2013-03-27 08:52:00,
2013-03-27 04:02:00,23.0,21.0,-100.00,WNW,285,1.0,2.0,92,-99.99,,,-99.99,,2013-03-27 09:02:00,
2013-03-27 04:12:00,23.0,21.0,-100.00,West,280,1.0,2.0,92,-99.99,,,-99.99,,2013-03-27 09:12:00,
2013-03-27 04:22:00,23.0,21.0,-100.00,West,280,1.0,2.0,92,-99.99,,,-99.99,,2013-03-27 09:22:00,
2013-03-27 04:32:00,24.0,22.0,-100.00,WNW,285,0.0,3.0,92,-99.99,,,-99.99,,2013-03-27 09:32:00,
2013-03-27 04:42:00,23.0,21.0,-100.00,South,180,1.0,2.0,91,-99.99,,,-99.99,,2013-03-27 09:42:00,
2013-03-27 04:52:00,23.0,21.0,-100.00,South,180,1.0,2.0,91,-99.99,,,-99.99,,2013-03-27 09:52:00,
2013-03-27 05:02:00,23.0,20.0,-100.00,West,280,1.0,3.0,91,-99.99,,,-99.99,,2013-03-27 10:02:00,
2013-03-27 05:12:00,22.0,20.0,-100.00,WSW,240,1.0,4.0,91,-99.99,,,-99.99,,2013-03-27 10:12:00,
2013-03-27 05:23:00,22.0,20.0,-100.00,WSW,240,1.0,4.0,91,-99.99,,,-99.99,,2013-03-27 10:23:00,
2013-03-27 05:32:00,22.0,20.0,-100.00,West,275,1.0,4.0,91,-99.99,,,-99.99,,2013-03-27 10:32:00,
2013-03-27 05:42:00,22.0,20.0,-100.00,West,275,2.0,3.0,92,-99.99,,,-99.99,,2013-03-27 10:42:00,
2013-03-27 05:52:00,22.0,20.0,-100.00,West,275,2.0,3.0,92,-99.99,,,-99.99,,2013-03-27 10:52:00,
2013-03-27 06:02:00,23.0,21.0,-100.00,WNW,285,2.0,4.0,92,-99.99,,,-99.99,,2013-03-27 11:02:00,
2013-03-27 06:12:00,22.0,20.0,-100.00,WNW,285,0.0,2.0,91,-99.99,,,-99.99,,2013-03-27 11:12:00,
2013-03-27 06:22:00,22.0,20.0,-100.00,WNW,285,0.0,2.0,91,-99.99,,,-99.99,,2013-03-27 11:22:00,
2013-03-27 06:32:00,22.0,20.0,-100.00,WNW,295,0.0,2.0,91,-99.99,,,-99.99,,2013-03-27 11:32:00,
2013-03-27 06:42:00,22.0,20.0,-100.00,SSW,200,1.0,3.0,91,-99.99,,,-99.99,,2013-03-27 11:42:00,
2013-03-27 06:52:00,22.0,20.0,-100.00,SSW,200,1.0,3.0,91,-99.99,,,-99.99,,2013-03-27 11:52:00,
2013-03-27 07:02:00,22.0,20.0,-100.00,WSW,255,0.0,2.0,91,-99.99,,,-99.99,,2013-03-27 12:02:00,
2013-03-27 07:12:00,22.0,20.0,-100.00,West,275,1.0,4.0,90,-99.99,,,-99.99,,2013-03-27 12:12:00,
2013-03-27 07:23:00,22.0,20.0,-100.00,West,275,1.0,4.0,90,-99.99,,,-99.99,,2013-03-27 12:23:00,
2013-03-27 07:32:00,22.0,20.0,-100.00,West,275,2.0,4.0,91,-99.99,,,-99.99,,2013-03-27 12:32:00,
2013-03-27 07:43:00,22.0,20.0,-100.00,West,265,1.0,3.0,91,-99.99,,,-99.99,,2013-03-27 12:43:00,
2013-03-27 07:52:00,22.0,20.0,-100.00,West,265,1.0,3.0,91,-99.99,,,-99.99,,2013-03-27 12:52:00,
2013-03-27 08:02:00,22.0,20.0,-100.00,WSW,240,1.0,4.0,90,-99.99,,,-99.99,,2013-03-27 13:02:00,
2013-03-27 08:12:00,23.0,20.0,-100.00,West,260,1.0,2.0,90,-99.99,,,-99.99,,2013-03-27 13:12:00,
2013-03-27 08:22:00,23.0,20.0,-100.00,West,260,1.0,2.0,90,-99.99,,,-99.99,,2013-03-27 13:22:00,
2013-03-27 08:32:00,24.0,21.0,-100.00,WNW,290,1.0,4.0,90,-99.99,,,-99.99,,2013-03-27 13:32:00,
2013-03-27 08:42:00,24.0,21.0,-100.00,WNW,290,1.0,3.0,89,-99.99,,,-99.99,,2013-03-27 13:42:00,
2013-03-27 08:52:00,24.0,21.0,-100.00,WNW,290,1.0,3.0,89,-99.99,,,-99.99,,2013-03-27 13:52:00,
2013-03-27 09:02:00,25.0,22.0,-100.00,WNW,290,1.0,4.0,89,-99.99,,,-99.99,,2013-03-27 14:02:00,
2013-03-27 09:12:00,26.0,23.0,-100.00,WNW,285,1.0,5.0,88,-99.99,,,-99.99,,2013-03-27 14:12:00,
2013-03-27 09:22:00,26.0,23.0,-100.00,WNW,285,1.0,5.0,88,-99.99,,,-99.99,,2013-03-27 14:22:00,
2013-03-27 09:32:00,28.0,24.0,-100.00,West,260,1.0,4.0,83,-99.99,,,-99.99,,2013-03-27 14:32:00,
2013-03-27 09:42:00,29.0,25.0,-100.00,West,270,1.0,4.0,82,-99.99,,,-99.99,,2013-03-27 14:42:00,
2013-03-27 09:52:00,29.0,25.0,-100.00,West,270,1.0,4.0,82,-99.99,,,-99.99,,2013-03-27 14:52:00,
2013-03-27 10:02:00,31.0,26.0,-100.00,West,260,1.0,4.0,80,-99.99,,,-99.99,,2013-03-27 15:02:00,
2013-03-27 10:12:00,33.0,27.0,-100.00,West,270,1.0,4.0,78,-99.99,,,-99.99,,2013-03-27 15:12:00,
2013-03-27 10:22:00,33.0,27.0,-100.00,West,270,1.0,4.0,78,-99.99,,,-99.99,,2013-03-27 15:22:00,
2013-03-27 10:33:00,35.0,27.0,-100.00,WNW,300,2.0,5.0,71,-99.99,,,-99.99,,2013-03-27 15:33:00,
2013-03-27 10:42:00,37.0,28.0,-100.00,WNW,300,3.0,4.0,69,-99.99,,,-99.99,,2013-03-27 15:42:00,
2013-03-27 10:52:00,37.0,28.0,-100.00,WNW,300,3.0,4.0,69,-99.99,,,-99.99,,2013-03-27 15:52:00,
2013-03-27 11:00:00,44.0,28.0,-100.00,WNW,285,4.0,8.0,53,-99.99,,,-99.99,,2013-03-27 16:00:00,
2013-03-27 11:03:00,40.0,27.0,-100.00,WNW,295,7.0,13.0,59,-99.99,,,-99.99,,2013-03-27 16:03:00,
2013-03-27 11:13:00,41.0,27.0,-100.00,WNW,295,7.0,13.0,57,-99.99,,,-99.99,,2013-03-27 16:13:00,
2013-03-27 11:22:00,41.0,27.0,-100.00,WNW,295,7.0,13.0,57,-99.99,,,-99.99,,2013-03-27 16:22:00,
2013-03-27 11:32:00,43.0,28.0,-100.00,NW,315,2.0,10.0,54,-99.99,,,-99.99,,2013-03-27 16:32:00,
2013-03-27 11:42:00,44.0,28.0,-100.00,WNW,285,4.0,8.0,53,-99.99,,,-99.99,,2013-03-27 16:42:00,
2013-03-27 11:52:00,44.0,28.0,-100.00,WNW,285,4.0,8.0,53,-99.99,,,-99.99,,2013-03-27 16:52:00,
2013-03-27 12:12:00,45.0,26.0,-100.00,West,270,5.0,8.0,47,-99.99,,,-99.99,,2013-03-27 17:12:00,
2013-03-27 12:22:00,45.0,26.0,-100.00,West,270,5.0,8.0,47,-99.99,,,-99.99,,2013-03-27 17:22:00,
2013-03-27 12:32:00,47.0,23.0,-100.00,WNW,290,5.0,9.0,38,-99.99,,,-99.99,,2013-03-27 17:32:00,
2013-03-27 12:44:00,47.0,25.0,-100.00,WNW,300,4.0,9.0,41,-99.99,,,-99.99,,2013-03-27 17:44:00,
2013-03-27 12:52:00,47.0,25.0,-100.00,WNW,300,4.0,9.0,41,-99.99,,,-99.99,,2013-03-27 17:52:00,
2013-03-27 13:02:00,48.0,25.0,-100.00,NW,320,2.0,7.0,41,-99.99,,,-99.99,,2013-03-27 18:02:00,
2013-03-27 13:12:00,47.0,24.0,-100.00,SW,215,6.0,10.0,40,-99.99,,,-99.99,,2013-03-27 18:12:00,
2013-03-27 13:22:00,47.0,24.0,-100.00,SW,215,6.0,10.0,40,-99.99,,,-99.99,,2013-03-27 18:22:00,
2013-03-27 13:32:00,48.0,23.0,-100.00,WSW,250,4.0,9.0,37,-99.99,,,-99.99,,2013-03-27 18:32:00,
2013-03-27 13:42:00,49.0,24.0,-100.00,West,260,3.0,9.0,37,-99.99,,,-99.99,,2013-03-27 18:42:00,
2013-03-27 13:52:00,49.0,24.0,-100.00,West,260,3.0,9.0,37,-99.99,,,-99.99,,2013-03-27 18:52:00,
2013-03-27 14:02:00,49.0,24.0,-100.00,SW,230,6.0,9.0,37,-99.99,,,-99.99,,2013-03-27 19:02:00,
2013-03-27 14:12:00,49.0,22.0,-100.00,West,260,6.0,10.0,35,-99.99,,,-99.99,,2013-03-27 19:12:00,
2013-03-27 14:22:00,49.0,22.0,-100.00,West,260,6.0,10.0,35,-99.99,,,-99.99,,2013-03-27 19:22:00,
2013-03-27 14:32:00,49.0,24.0,-100.00,WSW,255,5.0,9.0,37,-99.99,,,-99.99,,2013-03-27 19:32:00,
2013-03-27 14:42:00,49.0,24.0,-100.00,West,265,4.0,10.0,38,-99.99,,,-99.99,,2013-03-27 19:42:00,
2013-03-27 14:52:00,49.0,24.0,-100.00,West,265,4.0,10.0,38,-99.99,,,-99.99,,2013-03-27 19:52:00,
2013-03-27 15:02:00,50.0,23.0,-100.00,WNW,285,5.0,9.0,35,-99.99,,,-99.99,,2013-03-27 20:02:00,
2013-03-27 15:12:00,51.0,24.0,-100.00,WNW,300,4.0,7.0,35,-99.99,,,-99.99,,2013-03-27 20:12:00,
2013-03-27 15:22:00,51.0,24.0,-100.00,WNW,300,4.0,7.0,35,-99.99,,,-99.99,,2013-03-27 20:22:00,
2013-03-27 15:32:00,51.0,23.0,-100.00,SW,220,3.0,9.0,33,-99.99,,,-99.99,,2013-03-27 20:32:00,
2013-03-27 15:42:00,52.0,24.0,-100.00,WSW,245,5.0,9.0,34,-99.99,,,-99.99,,2013-03-27 20:42:00,
2013-03-27 15:52:00,52.0,24.0,-100.00,WSW,245,5.0,9.0,34,-99.99,,,-99.99,,2013-03-27 20:52:00,
2013-03-27 16:02:00,52.0,24.0,-100.00,WNW,285,7.0,13.0,34,-99.99,,,-99.99,,2013-03-27 21:02:00,
2013-03-27 16:12:00,53.0,24.0,-100.00,West,265,11.0,15.0,33,-99.99,,,-99.99,,2013-03-27 21:12:00,
2013-03-27 16:22:00,53.0,24.0,-100.00,West,265,11.0,15.0,33,-99.99,,,-99.99,,2013-03-27 21:22:00,
2013-03-27 16:32:00,53.0,26.0,-100.00,West,275,4.0,8.0,34,-99.99,,,-99.99,,2013-03-27 21:32:00,
2013-03-27 16:43:00,53.0,26.0,-100.00,WSW,255,8.0,14.0,34,-99.99,,,-99.99,,2013-03-27 21:43:00,
2013-03-27 16:52:00,53.0,26.0,-100.00,WSW,255,8.0,14.0,34,-99.99,,,-99.99,,2013-03-27 21:52:00,
2013-03-27 17:03:00,53.0,25.0,-100.00,WSW,250,8.0,13.0,33,-99.99,,,-99.99,,2013-03-27 22:03:00,
2013-03-27 17:12:00,53.0,25.0,-100.00,West,270,8.0,13.0,33,-99.99,,,-99.99,,2013-03-27 22:12:00,
2013-03-27 17:23:00,53.0,25.0,-100.00,West,270,8.0,13.0,33,-99.99,,,-99.99,,2013-03-27 22:23:00,
2013-03-27 17:33:00,54.0,26.0,-100.00,West,280,5.0,14.0,34,-99.99,,,-99.99,,2013-03-27 22:33:00,
2013-03-27 17:42:00,54.0,26.0,-100.00,West,265,7.0,14.0,34,-99.99,,,-99.99,,2013-03-27 22:42:00,
2013-03-27 17:52:00,54.0,26.0,-100.00,West,265,7.0,14.0,34,-99.99,,,-99.99,,2013-03-27 22:52:00,
2013-03-27 18:02:00,54.0,27.0,-100.00,West,265,7.0,14.0,35,-99.99,,,-99.99,,2013-03-27 23:02:00,
2013-03-27 18:12:00,53.0,26.0,-100.00,West,260,9.0,14.0,34,-99.99,,,-99.99,,2013-03-27 23:12:00,
2013-03-27 18:22:00,53.0,26.0,-100.00,West,260,9.0,14.0,34,-99.99,,,-99.99,,2013-03-27 23:22:00,
2013-03-27 18:32:00,53.0,26.0,-100.00,West,270,10.0,15.0,34,-99.99,,,-99.99,,2013-03-27 23:32:00,
2013-03-27 18:42:00,54.0,26.0,-100.00,West,275,8.0,14.0,34,-99.99,,,-99.99,,2013-03-27 23:42:00,
2013-03-27 18:52:00,54.0,26.0,-100.00,West,275,8.0,14.0,34,-99.99,,,-99.99,,2013-03-27 23:52:00,
2013-03-27 19:02:00,53.0,25.0,-100.00,West,260,10.0,17.0,34,-99.99,,,-99.99,,2013-03-28 00:02:00,
2013-03-27 19:12:00,52.0,26.0,-100.00,West,265,9.0,14.0,36,-99.99,,,-99.99,,2013-03-28 00:12:00,
2013-03-27 19:22:00,52.0,26.0,-100.00,West,265,9.0,14.0,36,-99.99,,,-99.99,,2013-03-28 00:22:00,
2013-03-27 19:32:00,52.0,25.0,-100.00,WSW,255,9.0,13.0,35,-99.99,,,-99.99,,2013-03-28 00:32:00,
2013-03-27 19:43:00,51.0,25.0,-100.00,West,260,5.0,11.0,36,-99.99,,,-99.99,,2013-03-28 00:43:00,
2013-03-27 19:52:00,51.0,25.0,-100.00,West,260,5.0,11.0,36,-99.99,,,-99.99,,2013-03-28 00:52:00,
2013-03-27 20:02:00,51.0,25.0,-100.00,WSW,240,3.0,7.0,36,-99.99,,,-99.99,,2013-03-28 01:02:00,
2013-03-27 20:12:00,51.0,25.0,-100.00,SSW,200,4.0,6.0,37,-99.99,,,-99.99,,2013-03-28 01:12:00,
2013-03-27 20:22:00,51.0,25.0,-100.00,SSW,200,4.0,6.0,37,-99.99,,,-99.99,,2013-03-28 01:22:00,
2013-03-27 20:32:00,50.0,26.0,-100.00,WSW,250,2.0,6.0,39,-99.99,,,-99.99,,2013-03-28 01:32:00,
2013-03-27 20:42:00,50.0,26.0,-100.00,West,265,3.0,5.0,39,-99.99,,,-99.99,,2013-03-28 01:42:00,
2013-03-27 20:50:00,49.0,26.0,-100.00,SW,235,2.0,4.0,41,-99.99,,,-99.99,,2013-03-28 01:50:00,
2013-03-27 20:52:00,50.0,26.0,-100.00,West,265,3.0,5.0,39,-99.99,,,-99.99,,2013-03-28 01:52:00,
2013-03-27 21:02:00,49.0,26.0,-100.00,West,270,2.0,4.0,40,-99.99,,,-99.99,,2013-03-28 02:02:00,
2013-03-27 21:12:00,49.0,27.0,-100.00,West,275,2.0,5.0,42,-99.99,,,-99.99,,2013-03-28 02:12:00,
2013-03-27 21:22:00,49.0,27.0,-100.00,West,275,2.0,5.0,42,-99.99,,,-99.99,,2013-03-28 02:22:00,
2013-03-27 21:32:00,49.0,26.0,-100.00,SW,235,2.0,4.0,41,-99.99,,,-99.99,,2013-03-28 02:32:00,
2013-03-27 21:42:00,49.0,26.0,-100.00,SW,235,2.0,4.0,41,-99.99,,,-99.99,,2013-03-28 02:42:00,
2013-03-27 22:02:00,48.0,27.0,-100.00,South,170,1.0,5.0,44,-99.99,,,-99.99,,2013-03-28 03:02:00,
2013-03-27 22:12:00,48.0,27.0,-100.00,WSW,245,1.0,4.0,43,-99.99,,,-99.99,,2013-03-28 03:12:00,
2013-03-27 22:22:00,48.0,27.0,-100.00,WSW,245,1.0,4.0,43,-99.99,,,-99.99,,2013-03-28 03:22:00,
2013-03-27 22:33:00,48.0,28.0,-100.00,SSW,210,4.0,6.0,45,-99.99,,,-99.99,,2013-03-28 03:33:00,
2013-03-27 22:43:00,47.0,28.0,-100.00,WSW,245,4.0,7.0,47,-99.99,,,-99.99,,2013-03-28 03:43:00,
2013-03-27 22:52:00,47.0,28.0,-100.00,WSW,245,4.0,7.0,47,-99.99,,,-99.99,,2013-03-28 03:52:00,
2013-03-27 23:02:00,47.0,28.0,-100.00,West,260,3.0,6.0,47,-99.99,,,-99.99,,2013-03-28 04:02:00,
2013-03-27 23:12:00,47.0,29.0,-100.00,West,265,3.0,7.0,50,-99.99,,,-99.99,,2013-03-28 04:12:00,
2013-03-27 23:23:00,47.0,29.0,-100.00,West,265,3.0,7.0,50,-99.99,,,-99.99,,2013-03-28 04:23:00,
2013-03-27 23:32:00,47.0,29.0,-100.00,West,280,1.0,3.0,50,-99.99,,,-99.99,,2013-03-28 04:32:00,
2013-03-27 23:42:00,47.0,29.0,-100.00,West,275,1.0,3.0,50,-99.99,,,-99.99,,2013-03-28 04:42:00,
2013-03-27 23:52:00,47.0,29.0,-100.00,West,275,1.0,3.0,50,-99.99,,,-99.99,,2013-03-28 04:52:00,